Time,TemperatureF,DewpointF,PressureIn,WindDirection,WindDirectionDegrees,WindSpeedMPH,WindSpeedGustMPH,Humidity,HourlyPrecipIn,Conditions,Clouds,dailyrainin,SoftwareType,DateUTC
2013-01-16 00:04:00,35.3,24.3,30.26,NNW,346,5.0,14.0,64,0.00,,,0.01,Wunderground v.1.15,2013-01-16 06:04:00,
2013-01-16 00:10:00,35.2,24.2,30.26,WNW,294,6.0,6.0,64,0.00,,,0.01,Wunderground v.1.15,2013-01-16 06:10:00,
2013-01-16 00:16:00,35.2,23.9,30.26,NNW,344,5.0,14.0,63,0.00,,,0.01,Wunderground v.1.15,2013-01-16 06:16:00,
2013-01-16 00:22:00,35.2,23.9,30.27,NNW,333,5.0,14.0,63,0.00,,,0.01,Wunderground v.1.15,2013-01-16 06:22:00,
2013-01-16 00:28:00,35.1,23.4,30.27,North,352,5.0,14.0,62,0.00,,,0.01,Wunderground v.1.15,2013-01-16 06:28:00,
2013-01-16 00:34:00,35.1,23.0,30.27,NW,316,6.0,14.0,61,0.00,,,0.01,Wunderground v.1.15,2013-01-16 06:34:00,
2013-01-16 00:40:00,35.0,22.9,30.27,WNW,303,6.0,6.0,61,0.00,,,0.01,Wunderground v.1.15,2013-01-16 06:40:00,
2013-01-16 00:46:00,35.1,22.6,30.27,NW,304,6.0,14.0,60,0.00,,,0.01,Wunderground v.1.15,2013-01-16 06:46:00,
2013-01-16 00:52:00,35.0,22.5,30.27,NW,309,6.0,14.0,60,0.00,,,0.01,Wunderground v.1.15,2013-01-16 06:52:00,
2013-01-16 00:58:00,35.0,22.1,30.26,NNW,344,5.0,14.0,59,0.00,,,0.01,Wunderground v.1.15,2013-01-16 06:58:00,
2013-01-16 01:04:00,35.0,21.7,30.27,NNW,342,6.0,14.0,58,0.00,,,0.00,Wunderground v.1.15,2013-01-16 07:04:00,
2013-01-16 01:10:00,35.0,21.3,30.27,NNW,333,6.0,13.0,57,0.00,,,0.00,Wunderground v.1.15,2013-01-16 07:10:00,
2013-01-16 01:15:00,34.9,21.2,30.27,NW,323,6.0,13.0,57,0.00,,,0.00,Wunderground v.1.15,2013-01-16 07:15:00,
2013-01-16 01:22:00,34.9,21.2,30.27,NE,41,4.0,13.0,57,0.00,,,0.00,Wunderground v.1.15,2013-01-16 07:22:00,
2013-01-16 01:28:00,34.7,21.0,30.27,West,280,3.0,13.0,57,0.00,,,0.00,Wunderground v.1.15,2013-01-16 07:28:00,
2013-01-16 01:34:00,34.6,20.5,30.27,North,3,3.0,13.0,56,0.00,,,0.00,Wunderground v.1.15,2013-01-16 07:34:00,
2013-01-16 01:40:00,34.5,20.4,30.27,NNW,335,2.0,13.0,56,0.00,,,0.00,Wunderground v.1.15,2013-01-16 07:40:00,
2013-01-16 01:46:00,34.4,20.3,30.27,ENE,58,2.0,13.0,56,0.00,,,0.00,Wunderground v.1.15,2013-01-16 07:46:00,
2013-01-16 01:52:00,34.3,20.2,30.27,NNW,338,2.0,6.0,56,0.00,,,0.00,Wunderground v.1.15,2013-01-16 07:52:00,
2013-01-16 01:58:00,34.2,20.1,30.27,NW,310,2.0,13.0,56,0.00,,,0.00,Wunderground v.1.15,2013-01-16 07:58:00,
2013-01-16 02:04:00,34.2,19.7,30.27,NW,314,3.0,13.0,55,0.00,,,0.00,Wunderground v.1.15,2013-01-16 08:04:00,
2013-01-16 02:10:00,34.3,19.4,30.27,NNW,327,4.0,7.0,54,0.00,,,0.00,Wunderground v.1.15,2013-01-16 08:10:00,
2013-01-16 02:16:00,34.3,19.4,30.27,NNW,347,4.0,7.0,54,0.00,,,0.00,Wunderground v.1.15,2013-01-16 08:16:00,
2013-01-16 02:22:00,34.3,19.4,30.27,NNE,13,5.0,7.0,54,0.00,,,0.00,Wunderground v.1.15,2013-01-16 08:22:00,
2013-01-16 02:27:00,34.3,18.9,30.27,NW,326,4.0,7.0,53,0.00,,,0.00,Wunderground v.1.15,2013-01-16 08:27:00,
2013-01-16 02:34:00,34.3,18.9,30.27,NW,320,4.0,7.0,53,0.00,,,0.00,Wunderground v.1.15,2013-01-16 08:34:00,
2013-01-16 02:40:00,34.2,19.3,30.27,NNW,328,4.0,4.0,54,0.00,,,0.00,Wunderground v.1.15,2013-01-16 08:40:00,
2013-01-16 02:45:00,34.2,19.3,30.27,NNW,328,4.0,7.0,54,0.00,,,0.00,Wunderground v.1.15,2013-01-16 08:45:00,
2013-01-16 02:52:00,34.2,18.8,30.27,North,354,3.0,7.0,53,0.00,,,0.00,Wunderground v.1.15,2013-01-16 08:52:00,
2013-01-16 02:58:00,34.2,18.8,30.27,NW,316,4.0,7.0,53,0.00,,,0.00,Wunderground v.1.15,2013-01-16 08:58:00,
2013-01-16 03:04:00,34.0,19.1,30.27,WNW,289,4.0,10.0,54,0.00,,,0.00,Wunderground v.1.15,2013-01-16 09:04:00,
2013-01-16 03:10:00,34.0,19.1,30.28,NNW,330,3.0,10.0,54,0.00,,,0.00,Wunderground v.1.15,2013-01-16 09:10:00,
2013-01-16 03:16:00,34.1,19.2,30.27,NW,322,4.0,10.0,54,0.00,,,0.00,Wunderground v.1.15,2013-01-16 09:16:00,
2013-01-16 03:22:00,34.1,19.2,30.28,NNW,335,4.0,10.0,54,0.00,,,0.00,Wunderground v.1.15,2013-01-16 09:22:00,
2013-01-16 03:28:00,34.0,19.5,30.29,WNW,285,4.0,10.0,55,0.00,,,0.00,Wunderground v.1.15,2013-01-16 09:28:00,
2013-01-16 03:34:00,33.9,19.4,30.29,WNW,295,3.0,10.0,55,0.00,,,0.00,Wunderground v.1.15,2013-01-16 09:34:00,
2013-01-16 03:40:00,33.7,19.7,30.29,NW,308,3.0,3.0,56,0.00,,,0.00,Wunderground v.1.15,2013-01-16 09:40:00,
2013-01-16 03:46:00,33.6,19.6,30.29,NW,319,2.0,10.0,56,0.00,,,0.00,Wunderground v.1.15,2013-01-16 09:46:00,
2013-01-16 03:52:00,33.6,20.0,30.30,NNW,327,2.0,10.0,57,0.00,,,0.00,Wunderground v.1.15,2013-01-16 09:52:00,
2013-01-16 03:58:00,33.3,19.7,30.30,NNW,343,1.0,10.0,57,0.00,,,0.00,Wunderground v.1.15,2013-01-16 09:58:00,
2013-01-16 04:04:00,33.2,20.0,30.30,WNW,294,1.0,10.0,58,0.00,,,0.00,Wunderground v.1.15,2013-01-16 10:04:00,
2013-01-16 04:10:00,33.2,20.4,30.30,NW,307,1.0,1.0,59,0.00,,,0.00,Wunderground v.1.15,2013-01-16 10:10:00,
2013-01-16 04:16:00,33.4,19.8,30.30,NW,321,2.0,6.0,57,0.00,,,0.00,Wunderground v.1.15,2013-01-16 10:16:00,
2013-01-16 04:22:00,33.5,19.9,30.30,NNW,328,3.0,6.0,57,0.00,,,0.00,Wunderground v.1.15,2013-01-16 10:22:00,
2013-01-16 04:28:00,33.5,20.3,30.30,NW,325,2.0,6.0,58,0.00,,,0.00,Wunderground v.1.15,2013-01-16 10:28:00,
2013-01-16 04:34:00,33.4,19.8,30.30,WNW,285,1.0,6.0,57,0.00,,,0.00,Wunderground v.1.15,2013-01-16 10:34:00,
2013-01-16 04:40:00,33.4,19.8,30.30,NW,319,1.0,6.0,57,0.00,,,0.00,Wunderground v.1.15,2013-01-16 10:40:00,
2013-01-16 04:46:00,33.4,19.8,30.30,NNW,327,1.0,6.0,57,0.00,,,0.00,Wunderground v.1.15,2013-01-16 10:46:00,
2013-01-16 04:52:00,33.4,19.8,30.30,NW,323,2.0,6.0,57,0.00,,,0.00,Wunderground v.1.15,2013-01-16 10:52:00,
2013-01-16 04:58:00,33.2,20.0,30.30,NNW,332,2.0,6.0,58,0.00,,,0.00,Wunderground v.1.15,2013-01-16 10:58:00,
2013-01-16 05:04:00,32.9,20.1,30.30,NNW,332,1.0,4.0,59,0.00,,,0.00,Wunderground v.1.15,2013-01-16 11:04:00,
2013-01-16 05:10:00,32.9,19.7,30.30,NW,310,1.0,4.0,58,0.00,,,0.00,Wunderground v.1.15,2013-01-16 11:10:00,
2013-01-16 05:16:00,33.0,19.8,30.30,NW,319,2.0,4.0,58,0.00,,,0.00,Wunderground v.1.15,2013-01-16 11:16:00,
2013-01-16 05:22:00,32.9,19.7,30.30,NW,313,2.0,4.0,58,0.00,,,0.00,Wunderground v.1.15,2013-01-16 11:22:00,
2013-01-16 05:28:00,33.0,19.8,30.30,NNW,335,2.0,4.0,58,0.00,,,0.00,Wunderground v.1.15,2013-01-16 11:28:00,
2013-01-16 05:34:00,33.0,19.8,30.30,WNW,284,2.0,4.0,58,0.00,,,0.00,Wunderground v.1.15,2013-01-16 11:34:00,
2013-01-16 05:40:00,33.0,19.8,30.31,WNW,288,3.0,3.0,58,0.00,,,0.00,Wunderground v.1.15,2013-01-16 11:40:00,
2013-01-16 05:46:00,32.9,19.7,30.31,WNW,298,2.0,4.0,58,0.00,,,0.00,Wunderground v.1.15,2013-01-16 11:46:00,
2013-01-16 05:51:00,32.9,19.7,30.31,NNW,342,2.0,4.0,58,0.00,,,0.00,Wunderground v.1.15,2013-01-16 11:51:00,
2013-01-16 05:58:00,32.7,19.5,30.31,WNW,301,2.0,4.0,58,0.00,,,0.00,Wunderground v.1.15,2013-01-16 11:58:00,
2013-01-16 06:04:00,32.6,19.4,30.31,NW,316,2.0,7.0,58,0.00,,,0.00,Wunderground v.1.15,2013-01-16 12:04:00,
2013-01-16 06:10:00,32.4,19.3,30.32,NW,309,1.0,1.0,58,0.00,,,0.00,Wunderground v.1.15,2013-01-16 12:10:00,
2013-01-16 06:16:00,32.1,19.4,30.32,WNW,284,1.0,7.0,59,0.00,,,0.00,Wunderground v.1.15,2013-01-16 12:16:00,
2013-01-16 06:22:00,32.1,19.4,30.32,West,278,1.0,7.0,59,0.00,,,0.00,Wunderground v.1.15,2013-01-16 12:22:00,
2013-01-16 06:28:00,32.1,19.4,30.32,NW,314,1.0,7.0,59,0.00,,,0.00,Wunderground v.1.15,2013-01-16 12:28:00,
2013-01-16 06:33:00,32.3,19.6,30.32,NNW,332,2.0,7.0,59,0.00,,,0.00,Wunderground v.1.15,2013-01-16 12:33:00,
2013-01-16 06:40:00,32.4,19.3,30.32,NNW,338,3.0,7.0,58,0.00,,,0.00,Wunderground v.1.15,2013-01-16 12:40:00,
2013-01-16 06:46:00,32.5,19.3,30.33,West,281,3.0,7.0,58,0.00,,,0.00,Wunderground v.1.15,2013-01-16 12:46:00,
2013-01-16 06:52:00,32.4,19.3,30.33,NW,311,2.0,7.0,58,0.00,,,0.00,Wunderground v.1.15,2013-01-16 12:52:00,
2013-01-16 06:58:00,32.2,19.5,30.33,NW,312,1.0,7.0,59,0.00,,,0.00,Wunderground v.1.15,2013-01-16 12:58:00,
2013-01-16 07:04:00,31.8,19.5,30.33,NW,312,0.0,6.0,60,0.00,,,0.00,Wunderground v.1.15,2013-01-16 13:04:00,
2013-01-16 07:10:00,31.4,19.5,30.33,West,281,0.0,6.0,61,0.00,,,0.00,Wunderground v.1.15,2013-01-16 13:10:00,
2013-01-16 07:16:00,31.3,19.4,30.33,NW,311,1.0,6.0,61,0.00,,,0.00,Wunderground v.1.15,2013-01-16 13:16:00,
2013-01-16 07:22:00,31.3,19.4,30.34,WNW,290,1.0,6.0,61,0.00,,,0.00,Wunderground v.1.15,2013-01-16 13:22:00,
2013-01-16 07:28:00,31.2,19.7,30.34,WNW,291,1.0,6.0,62,0.00,,,0.00,Wunderground v.1.15,2013-01-16 13:28:00,
2013-01-16 07:34:00,31.0,19.5,30.34,NW,326,0.0,6.0,62,0.00,,,0.00,Wunderground v.1.15,2013-01-16 13:34:00,
2013-01-16 07:39:00,31.3,19.4,30.34,NNW,328,1.0,6.0,61,0.00,,,0.00,Wunderground v.1.15,2013-01-16 13:39:00,
2013-01-16 07:46:00,31.6,19.7,30.34,NW,316,2.0,6.0,61,0.00,,,0.00,Wunderground v.1.15,2013-01-16 13:46:00,
2013-01-16 07:52:00,31.6,19.7,30.34,NW,313,1.0,6.0,61,0.00,,,0.00,Wunderground v.1.15,2013-01-16 13:52:00,
2013-01-16 07:58:00,31.6,19.7,30.35,NW,321,0.0,6.0,61,0.00,,,0.00,Wunderground v.1.15,2013-01-16 13:58:00,
2013-01-16 08:04:00,31.7,19.8,30.35,WNW,287,1.0,6.0,61,0.00,,,0.00,Wunderground v.1.15,2013-01-16 14:04:00,
2013-01-16 08:10:00,31.9,20.0,30.35,NNW,328,1.0,5.0,61,0.00,,,0.00,Wunderground v.1.15,2013-01-16 14:10:00,
2013-01-16 08:16:00,32.3,20.0,30.35,NW,326,1.0,5.0,60,0.00,,,0.00,Wunderground v.1.15,2013-01-16 14:16:00,
2013-01-16 08:22:00,33.0,20.2,30.36,NW,323,2.0,5.0,59,0.00,,,0.00,Wunderground v.1.15,2013-01-16 14:22:00,
2013-01-16 08:28:00,33.6,20.4,30.36,NW,323,2.0,5.0,58,0.00,,,0.00,Wunderground v.1.15,2013-01-16 14:28:00,
2013-01-16 08:34:00,34.1,20.4,30.36,WNW,283,3.0,5.0,57,0.00,,,0.00,Wunderground v.1.15,2013-01-16 14:34:00,
2013-01-16 08:40:00,34.4,20.7,30.37,NNW,329,3.0,5.0,57,0.00,,,0.00,Wunderground v.1.15,2013-01-16 14:40:00,
2013-01-16 08:46:00,34.9,20.8,30.37,NW,318,3.0,5.0,56,0.00,,,0.00,Wunderground v.1.15,2013-01-16 14:46:00,
2013-01-16 08:52:00,35.5,20.9,30.37,WNW,291,3.0,5.0,55,0.00,,,0.00,Wunderground v.1.15,2013-01-16 14:52:00,
2013-01-16 08:58:00,35.9,21.3,30.37,NW,304,3.0,5.0,55,0.00,,,0.00,Wunderground v.1.15,2013-01-16 14:58:00,
2013-01-16 09:04:00,36.6,21.9,30.37,NNW,331,3.0,8.0,55,0.00,,,0.00,Wunderground v.1.15,2013-01-16 15:04:00,
2013-01-16 09:10:00,37.1,22.0,30.36,NW,314,3.0,8.0,54,0.00,,,0.00,Wunderground v.1.15,2013-01-16 15:10:00,
2013-01-16 09:16:00,37.7,21.6,30.37,WNW,293,3.0,8.0,52,0.00,,,0.00,Wunderground v.1.15,2013-01-16 15:16:00,
2013-01-16 09:22:00,38.3,21.7,30.36,WNW,288,3.0,8.0,51,0.00,,,0.00,Wunderground v.1.15,2013-01-16 15:22:00,
2013-01-16 09:28:00,39.0,21.4,30.36,NW,304,4.0,8.0,49,0.00,,,0.00,Wunderground v.1.15,2013-01-16 15:28:00,
2013-01-16 09:34:00,39.5,21.4,30.37,WSW,249,4.0,8.0,48,0.00,,,0.00,Wunderground v.1.15,2013-01-16 15:34:00,
2013-01-16 09:40:00,40.0,21.9,30.37,NW,316,4.0,4.0,48,0.00,,,0.00,Wunderground v.1.15,2013-01-16 15:40:00,
2013-01-16 09:46:00,40.6,22.9,30.38,NNW,342,4.0,8.0,49,0.00,,,0.00,Wunderground v.1.15,2013-01-16 15:46:00,
2013-01-16 09:52:00,41.1,22.4,30.37,NNW,347,3.0,4.0,47,0.00,,,0.00,Wunderground v.1.15,2013-01-16 15:52:00,
2013-01-16 09:58:00,41.7,22.4,30.37,WNW,288,4.0,8.0,46,0.00,,,0.00,Wunderground v.1.15,2013-01-16 15:58:00,
2013-01-16 10:04:00,42.3,22.4,30.37,WNW,288,4.0,11.0,45,0.00,,,0.00,Wunderground v.1.15,2013-01-16 16:04:00,
2013-01-16 10:10:00,42.7,22.8,30.37,West,278,3.0,11.0,45,0.00,,,0.00,Wunderground v.1.15,2013-01-16 16:10:00,
2013-01-16 10:16:00,43.2,22.7,30.37,WNW,285,3.0,11.0,44,0.00,,,0.00,Wunderground v.1.15,2013-01-16 16:16:00,
2013-01-16 10:22:00,43.9,22.8,30.36,West,281,3.0,11.0,43,0.00,,,0.00,Wunderground v.1.15,2013-01-16 16:22:00,
2013-01-16 10:28:00,44.3,22.6,30.36,WNW,285,5.0,11.0,42,0.00,,,0.00,Wunderground v.1.15,2013-01-16 16:28:00,
2013-01-16 10:34:00,44.9,23.2,30.36,WNW,283,4.0,11.0,42,0.00,,,0.00,Wunderground v.1.15,2013-01-16 16:34:00,
2013-01-16 10:40:00,45.3,23.5,30.36,WNW,294,4.0,11.0,42,0.00,,,0.00,Wunderground v.1.15,2013-01-16 16:40:00,
2013-01-16 10:46:00,45.5,23.1,30.35,West,281,5.0,11.0,41,0.00,,,0.00,Wunderground v.1.15,2013-01-16 16:46:00,
2013-01-16 10:52:00,45.7,23.9,30.35,NW,307,5.0,11.0,42,0.00,,,0.00,Wunderground v.1.15,2013-01-16 16:52:00,
2013-01-16 10:58:00,45.6,23.2,30.34,West,262,6.0,11.0,41,0.00,,,0.00,Wunderground v.1.15,2013-01-16 16:58:00,
2013-01-16 11:04:00,45.8,23.4,30.34,WNW,295,6.0,14.0,41,0.00,,,0.00,Wunderground v.1.15,2013-01-16 17:04:00,
2013-01-16 11:10:00,46.2,23.8,30.33,WNW,288,5.0,5.0,41,0.00,,,0.00,Wunderground v.1.15,2013-01-16 17:10:00,
2013-01-16 11:16:00,46.7,23.0,30.33,NW,318,5.0,14.0,39,0.00,,,0.00,Wunderground v.1.15,2013-01-16 17:16:00,
2013-01-16 11:22:00,47.0,23.3,30.32,NW,316,6.0,14.0,39,0.00,,,0.00,Wunderground v.1.15,2013-01-16 17:22:00,
2013-01-16 11:28:00,47.1,24.0,30.32,West,269,5.0,14.0,40,0.00,,,0.00,Wunderground v.1.15,2013-01-16 17:28:00,
2013-01-16 11:34:00,47.9,23.5,30.32,NW,306,5.0,14.0,38,0.00,,,0.00,Wunderground v.1.15,2013-01-16 17:34:00,
2013-01-16 11:40:00,48.5,22.7,30.31,WNW,291,4.0,14.0,36,0.00,,,0.00,Wunderground v.1.15,2013-01-16 17:40:00,
2013-01-16 11:46:00,48.4,22.6,30.31,WNW,285,6.0,14.0,36,0.00,,,0.00,Wunderground v.1.15,2013-01-16 17:46:00,
2013-01-16 11:52:00,48.9,21.7,30.30,West,281,6.0,14.0,34,0.00,,,0.00,Wunderground v.1.15,2013-01-16 17:52:00,
2013-01-16 11:58:00,49.2,20.6,30.29,WNW,283,6.0,14.0,32,0.00,,,0.00,Wunderground v.1.15,2013-01-16 17:58:00,
2013-01-16 12:04:00,49.5,20.1,30.29,WNW,291,7.0,14.0,31,0.00,,,0.00,Wunderground v.1.15,2013-01-16 18:04:00,
2013-01-16 12:10:00,49.5,20.8,30.29,NW,318,6.0,13.0,32,0.00,,,0.00,Wunderground v.1.15,2013-01-16 18:10:00,
2013-01-16 12:16:00,49.5,20.1,30.28,WNW,286,6.0,14.0,31,0.00,,,0.00,Wunderground v.1.15,2013-01-16 18:16:00,
2013-01-16 12:22:00,50.0,20.5,30.28,West,277,6.0,13.0,31,0.00,,,0.00,Wunderground v.1.15,2013-01-16 18:22:00,
2013-01-16 12:28:00,50.4,20.9,30.28,WNW,301,5.0,13.0,31,0.00,,,0.00,Wunderground v.1.15,2013-01-16 18:28:00,
2013-01-16 12:34:00,50.5,20.2,30.27,NNW,333,6.0,13.0,30,0.00,,,0.00,Wunderground v.1.15,2013-01-16 18:34:00,
2013-01-16 12:40:00,50.6,20.3,30.27,WNW,284,6.0,13.0,30,0.00,,,0.00,Wunderground v.1.15,2013-01-16 18:40:00,
2013-01-16 12:46:00,50.8,21.2,30.27,NW,311,6.0,13.0,31,0.00,,,0.00,Wunderground v.1.15,2013-01-16 18:46:00,
2013-01-16 12:52:00,50.8,21.2,30.26,NW,323,7.0,13.0,31,0.00,,,0.00,Wunderground v.1.15,2013-01-16 18:52:00,
2013-01-16 12:58:00,50.9,20.5,30.26,North,354,7.0,13.0,30,0.00,,,0.00,Wunderground v.1.15,2013-01-16 18:58:00,
2013-01-16 13:04:00,51.3,21.6,30.26,WNW,286,5.0,23.0,31,0.00,,,0.00,Wunderground v.1.15,2013-01-16 19:04:00,
2013-01-16 13:10:00,51.4,20.2,30.25,NNW,328,5.0,23.0,29,0.00,,,0.00,Wunderground v.1.15,2013-01-16 19:10:00,
2013-01-16 13:16:00,51.8,20.5,30.25,WNW,295,6.0,23.0,29,0.00,,,0.00,Wunderground v.1.15,2013-01-16 19:16:00,
2013-01-16 13:22:00,51.8,19.7,30.25,NNW,328,6.0,23.0,28,0.00,,,0.00,Wunderground v.1.15,2013-01-16 19:22:00,
2013-01-16 13:28:00,52.0,19.9,30.24,NW,314,6.0,23.0,28,0.00,,,0.00,Wunderground v.1.15,2013-01-16 19:28:00,
2013-01-16 13:34:00,52.2,17.4,30.24,WNW,298,7.0,23.0,25,0.00,,,0.00,Wunderground v.1.15,2013-01-16 19:34:00,
2013-01-16 13:40:00,52.0,18.1,30.23,WNW,291,7.0,7.0,26,0.00,,,0.00,Wunderground v.1.15,2013-01-16 19:40:00,
2013-01-16 13:46:00,52.6,18.6,30.23,NNW,328,5.0,23.0,26,0.00,,,0.00,Wunderground v.1.15,2013-01-16 19:46:00,
2013-01-16 13:52:00,53.0,19.0,30.23,West,276,5.0,23.0,26,0.00,,,0.00,Wunderground v.1.15,2013-01-16 19:52:00,
2013-01-16 13:58:00,53.2,18.2,30.23,WNW,296,5.0,23.0,25,0.00,,,0.00,Wunderground v.1.15,2013-01-16 19:58:00,
2013-01-16 14:04:00,53.0,16.1,30.22,WNW,293,6.0,23.0,23,0.00,,,0.00,Wunderground v.1.15,2013-01-16 20:04:00,
2013-01-16 14:10:00,52.8,16.0,30.22,WNW,301,7.0,7.0,23,0.00,,,0.00,Wunderground v.1.15,2013-01-16 20:10:00,
2013-01-16 14:16:00,52.8,16.0,30.22,WNW,290,6.0,13.0,23,0.00,,,0.00,Wunderground v.1.15,2013-01-16 20:16:00,
2013-01-16 14:22:00,53.0,15.1,30.21,NNW,337,7.0,13.0,22,0.00,,,0.00,Wunderground v.1.15,2013-01-16 20:22:00,
2013-01-16 14:28:00,52.8,14.9,30.21,West,278,8.0,13.0,22,0.00,,,0.00,Wunderground v.1.15,2013-01-16 20:28:00,
2013-01-16 14:34:00,53.0,16.1,30.21,WNW,290,7.0,13.0,23,0.00,,,0.00,Wunderground v.1.15,2013-01-16 20:34:00,
2013-01-16 14:39:00,52.8,14.9,30.21,WNW,297,6.0,13.0,22,0.00,,,0.00,Wunderground v.1.15,2013-01-16 20:39:00,
2013-01-16 14:46:00,52.8,14.9,30.20,WNW,284,7.0,13.0,22,0.00,,,0.00,Wunderground v.1.15,2013-01-16 20:46:00,
2013-01-16 14:52:00,52.8,14.9,30.21,West,279,7.0,13.0,22,0.00,,,0.00,Wunderground v.1.15,2013-01-16 20:52:00,
2013-01-16 14:58:00,53.5,15.5,30.21,WNW,301,7.0,13.0,22,0.00,,,0.00,Wunderground v.1.15,2013-01-16 20:58:00,
2013-01-16 15:04:00,53.3,14.3,30.20,NE,34,7.0,19.0,21,0.00,,,0.00,Wunderground v.1.15,2013-01-16 21:04:00,
2013-01-16 15:10:00,53.0,14.0,30.20,WNW,301,8.0,8.0,21,0.00,,,0.00,Wunderground v.1.15,2013-01-16 21:10:00,
2013-01-16 15:16:00,53.0,14.0,30.20,WNW,283,8.0,19.0,21,0.00,,,0.00,Wunderground v.1.15,2013-01-16 21:16:00,
2013-01-16 15:21:00,53.6,15.6,30.20,NW,320,6.0,10.0,22,0.00,,,0.00,Wunderground v.1.15,2013-01-16 21:21:00,
2013-01-16 15:28:00,53.2,14.2,30.20,West,277,8.0,19.0,21,0.00,,,0.00,Wunderground v.1.15,2013-01-16 21:28:00,
2013-01-16 15:34:00,52.9,15.0,30.20,WNW,288,9.0,19.0,22,0.00,,,0.00,Wunderground v.1.15,2013-01-16 21:34:00,
2013-01-16 15:40:00,53.2,16.3,30.21,NW,314,7.0,19.0,23,0.00,,,0.00,Wunderground v.1.15,2013-01-16 21:40:00,
2013-01-16 15:46:00,53.1,14.1,30.21,NNW,338,9.0,19.0,21,0.00,,,0.00,Wunderground v.1.15,2013-01-16 21:46:00,
2013-01-16 15:52:00,53.2,15.3,30.21,NW,307,10.0,19.0,22,0.00,,,0.00,Wunderground v.1.15,2013-01-16 21:52:00,
2013-01-16 15:58:00,53.3,15.4,30.20,NNW,328,8.0,19.0,22,0.00,,,0.00,Wunderground v.1.15,2013-01-16 21:58:00,
2013-01-16 16:04:00,53.4,15.4,30.20,West,278,8.0,26.0,22,0.00,,,0.00,Wunderground v.1.15,2013-01-16 22:04:00,
2013-01-16 16:09:00,53.3,16.4,30.20,West,274,7.0,7.0,23,0.00,,,0.00,Wunderground v.1.15,2013-01-16 22:09:00,
2013-01-16 16:16:00,53.2,16.3,30.20,NW,309,7.0,26.0,23,0.00,,,0.00,Wunderground v.1.15,2013-01-16 22:16:00,
2013-01-16 16:22:00,53.0,16.1,30.21,WNW,293,7.0,26.0,23,0.00,,,0.00,Wunderground v.1.15,2013-01-16 22:22:00,
2013-01-16 16:28:00,53.0,16.1,30.21,WNW,288,7.0,26.0,23,0.00,,,0.00,Wunderground v.1.15,2013-01-16 22:28:00,
2013-01-16 16:34:00,53.2,17.3,30.21,WNW,285,6.0,26.0,24,0.00,,,0.00,Wunderground v.1.15,2013-01-16 22:34:00,
2013-01-16 16:40:00,53.1,17.2,30.21,West,280,6.0,6.0,24,0.00,,,0.00,Wunderground v.1.15,2013-01-16 22:40:00,
2013-01-16 16:46:00,53.1,17.2,30.21,NW,308,5.0,26.0,24,0.00,,,0.00,Wunderground v.1.15,2013-01-16 22:46:00,
2013-01-16 16:52:00,53.0,17.1,30.21,NW,326,7.0,26.0,24,0.00,,,0.00,Wunderground v.1.15,2013-01-16 22:52:00,
2013-01-16 16:58:00,52.8,16.9,30.22,WNW,293,8.0,26.0,24,0.00,,,0.00,Wunderground v.1.15,2013-01-16 22:58:00,
2013-01-16 17:04:00,52.6,16.8,30.21,NW,319,7.0,26.0,24,0.00,,,0.00,Wunderground v.1.15,2013-01-16 23:04:00,
2013-01-16 17:10:00,52.4,16.6,30.22,NNW,334,8.0,8.0,24,0.00,,,0.00,Wunderground v.1.15,2013-01-16 23:10:00,
2013-01-16 17:16:00,52.3,17.5,30.22,NW,313,7.0,18.0,25,0.00,,,0.00,Wunderground v.1.15,2013-01-16 23:16:00,
2013-01-16 17:22:00,52.2,17.4,30.22,NNW,328,5.0,18.0,25,0.00,,,0.00,Wunderground v.1.15,2013-01-16 23:22:00,
2013-01-16 17:28:00,52.0,17.2,30.23,NNW,343,5.0,18.0,25,0.00,,,0.00,Wunderground v.1.15,2013-01-16 23:28:00,
2013-01-16 17:34:00,51.9,17.1,30.23,NNW,336,4.0,18.0,25,0.00,,,0.00,Wunderground v.1.15,2013-01-16 23:34:00,
2013-01-16 17:40:00,51.7,17.9,30.23,WNW,297,4.0,4.0,26,0.00,,,0.00,Wunderground v.1.15,2013-01-16 23:40:00,
2013-01-16 17:46:00,51.5,18.6,30.23,NW,322,4.0,18.0,27,0.00,,,0.00,Wunderground v.1.15,2013-01-16 23:46:00,
2013-01-16 17:52:00,51.2,18.3,30.23,NNW,345,4.0,18.0,27,0.00,,,0.00,Wunderground v.1.15,2013-01-16 23:52:00,
2013-01-16 17:58:00,51.0,18.1,30.23,WNW,288,4.0,18.0,27,0.00,,,0.00,Wunderground v.1.15,2013-01-16 23:58:00,
2013-01-16 18:04:00,50.7,18.7,30.23,NNW,340,3.0,8.0,28,0.00,,,0.00,Wunderground v.1.15,2013-01-17 00:04:00,
2013-01-16 18:10:00,50.3,19.2,30.23,North,355,2.0,2.0,29,0.00,,,0.00,Wunderground v.1.15,2013-01-17 00:10:00,
2013-01-16 18:16:00,49.8,19.6,30.24,NNW,330,1.0,8.0,30,0.00,,,0.00,Wunderground v.1.15,2013-01-17 00:16:00,
2013-01-16 18:22:00,49.2,20.6,30.24,NNW,330,0.0,8.0,32,0.00,,,0.00,Wunderground v.1.15,2013-01-17 00:22:00,
2013-01-16 18:28:00,48.5,19.9,30.24,NNW,333,0.0,8.0,32,0.00,,,0.00,Wunderground v.1.15,2013-01-17 00:28:00,
2013-01-16 18:34:00,48.1,19.6,30.24,NNW,333,0.0,8.0,32,0.00,,,0.00,Wunderground v.1.15,2013-01-17 00:34:00,
2013-01-16 18:40:00,47.8,20.8,30.24,NNW,333,0.0,8.0,34,0.00,,,0.00,Wunderground v.1.15,2013-01-17 00:40:00,
2013-01-16 18:46:00,47.0,21.4,30.24,NNW,333,0.0,8.0,36,0.00,,,0.00,Wunderground v.1.15,2013-01-17 00:46:00,
2013-01-16 18:52:00,46.4,20.9,30.25,NNW,333,0.0,8.0,36,0.00,,,0.00,Wunderground v.1.15,2013-01-17 00:52:00,
2013-01-16 18:58:00,46.2,21.3,30.25,NNW,333,0.0,8.0,37,0.00,,,0.00,Wunderground v.1.15,2013-01-17 00:58:00,
2013-01-16 19:04:00,45.6,22.0,30.25,NNW,333,0.0,8.0,39,0.00,,,0.00,Wunderground v.1.15,2013-01-17 01:04:00,
2013-01-16 19:10:00,45.7,20.9,30.25,NNW,333,0.0,1.0,37,0.00,,,0.00,Wunderground v.1.15,2013-01-17 01:10:00,
2013-01-16 19:16:00,45.9,21.7,30.25,NNW,333,1.0,1.0,38,0.00,,,0.00,Wunderground v.1.15,2013-01-17 01:16:00,
2013-01-16 19:22:00,45.6,22.0,30.25,NNW,333,0.0,1.0,39,0.00,,,0.00,Wunderground v.1.15,2013-01-17 01:22:00,
2013-01-16 19:28:00,44.8,23.1,30.26,NNW,333,0.0,1.0,42,0.00,,,0.00,Wunderground v.1.15,2013-01-17 01:28:00,
2013-01-16 19:34:00,43.8,23.3,30.26,NNW,333,0.0,1.0,44,0.00,,,0.00,Wunderground v.1.15,2013-01-17 01:34:00,
2013-01-16 19:40:00,43.1,24.2,30.26,NNW,333,0.0,1.0,47,0.00,,,0.00,Wunderground v.1.15,2013-01-17 01:40:00,
2013-01-16 19:46:00,42.4,24.1,30.27,NNW,333,0.0,1.0,48,0.00,,,0.00,Wunderground v.1.15,2013-01-17 01:46:00,
2013-01-16 19:52:00,42.2,22.9,30.27,NNW,333,0.0,1.0,46,0.00,,,0.00,Wunderground v.1.15,2013-01-17 01:52:00,
2013-01-16 19:58:00,42.2,21.3,30.27,NNW,333,0.0,1.0,43,0.00,,,0.00,Wunderground v.1.15,2013-01-17 01:58:00,
2013-01-16 20:04:00,42.4,22.5,30.27,NNW,333,0.0,1.0,45,0.00,,,0.00,Wunderground v.1.15,2013-01-17 02:04:00,
2013-01-16 20:10:00,41.9,23.1,30.27,NNW,332,0.0,1.0,47,0.00,,,0.00,Wunderground v.1.15,2013-01-17 02:10:00,
2013-01-16 20:16:00,41.5,22.2,30.27,NNW,332,0.0,1.0,46,0.00,,,0.00,Wunderground v.1.15,2013-01-17 02:16:00,
2013-01-16 20:22:00,41.3,22.1,30.27,NNW,333,0.0,1.0,46,0.00,,,0.00,Wunderground v.1.15,2013-01-17 02:22:00,
2013-01-16 20:28:00,41.4,20.5,30.28,NNW,333,0.0,1.0,43,0.00,,,0.00,Wunderground v.1.15,2013-01-17 02:28:00,
2013-01-16 20:34:00,41.7,21.4,30.28,NNW,333,0.0,1.0,44,0.00,,,0.00,Wunderground v.1.15,2013-01-17 02:34:00,
2013-01-16 20:40:00,41.7,20.8,30.28,NNW,333,0.0,1.0,43,0.00,,,0.00,Wunderground v.1.15,2013-01-17 02:40:00,
2013-01-16 20:46:00,41.8,20.9,30.28,NNW,332,0.0,1.0,43,0.00,,,0.00,Wunderground v.1.15,2013-01-17 02:46:00,
2013-01-16 20:52:00,42.2,20.7,30.28,NNW,333,0.0,1.0,42,0.00,,,0.00,Wunderground v.1.15,2013-01-17 02:52:00,
2013-01-16 20:58:00,42.3,20.8,30.28,NNW,333,0.0,1.0,42,0.00,,,0.00,Wunderground v.1.15,2013-01-17 02:58:00,
2013-01-16 21:08:00,41.9,19.9,30.28,NNW,333,0.0,1.0,41,0.00,,,0.00,Wunderground v.1.15,2013-01-17 03:08:00,
2013-01-16 21:14:00,42.0,20.0,30.28,NNW,333,0.0,1.0,41,0.00,,,0.00,Wunderground v.1.15,2013-01-17 03:14:00,
2013-01-16 21:20:00,42.0,20.0,30.28,NNW,333,0.0,1.0,41,0.00,,,0.00,Wunderground v.1.15,2013-01-17 03:20:00,
2013-01-16 21:26:00,42.0,20.5,30.28,NNW,333,0.0,1.0,42,0.00,,,0.00,Wunderground v.1.15,2013-01-17 03:26:00,
2013-01-16 21:32:00,41.6,21.8,30.28,NNW,333,0.0,1.0,45,0.00,,,0.00,Wunderground v.1.15,2013-01-17 03:32:00,
2013-01-16 21:38:00,40.7,22.5,30.28,NNW,333,0.0,1.0,48,0.00,,,0.00,Wunderground v.1.15,2013-01-17 03:38:00,
2013-01-16 21:44:00,40.1,22.4,30.28,NNW,333,0.0,1.0,49,0.00,,,0.00,Wunderground v.1.15,2013-01-17 03:44:00,
2013-01-16 21:50:00,39.9,22.7,30.28,NNW,333,0.0,1.0,50,0.00,,,0.00,Wunderground v.1.15,2013-01-17 03:50:00,
2013-01-16 21:56:00,39.9,22.3,30.27,NNW,333,0.0,1.0,49,0.00,,,0.00,Wunderground v.1.15,2013-01-17 03:56:00,
2013-01-16 22:02:00,39.7,22.1,30.28,NNW,333,0.0,1.0,49,0.00,,,0.00,Wunderground v.1.15,2013-01-17 04:02:00,
2013-01-16 22:08:00,38.9,22.3,30.28,NNW,333,0.0,1.0,51,0.00,,,0.00,Wunderground v.1.15,2013-01-17 04:08:00,
2013-01-16 22:14:00,38.5,23.3,30.28,NNW,333,0.0,0.0,54,0.00,,,0.00,Wunderground v.1.15,2013-01-17 04:14:00,
2013-01-16 22:20:00,38.4,23.2,30.28,NNW,333,0.0,0.0,54,0.00,,,0.00,Wunderground v.1.15,2013-01-17 04:20:00,
2013-01-16 22:26:00,38.1,22.9,30.28,NNW,333,0.0,0.0,54,0.00,,,0.00,Wunderground v.1.15,2013-01-17 04:26:00,
2013-01-16 22:32:00,38.0,23.3,30.28,NNW,328,0.0,0.0,55,0.00,,,0.00,Wunderground v.1.15,2013-01-17 04:32:00,
2013-01-16 22:38:00,37.7,24.2,30.28,NNE,30,0.0,1.0,58,0.00,,,0.00,Wunderground v.1.15,2013-01-17 04:38:00,
2013-01-16 22:44:00,37.8,23.9,30.29,NNW,335,1.0,1.0,57,0.00,,,0.00,Wunderground v.1.15,2013-01-17 04:44:00,
2013-01-16 22:50:00,38.0,24.1,30.29,NNW,335,0.0,0.0,57,0.00,,,0.00,Wunderground v.1.15,2013-01-17 04:50:00,
2013-01-16 22:56:00,37.8,24.3,30.29,NNW,335,0.0,0.0,58,0.00,,,0.00,Wunderground v.1.15,2013-01-17 04:56:00,
2013-01-16 23:00:00,37.7,24.2,30.29,NNW,335,0.0,0.0,58,0.00,,,0.00,Wunderground v.1.15,2013-01-17 05:00:00,
2013-01-16 23:04:00,37.5,24.5,30.30,NNW,335,0.0,2.0,59,0.00,,,0.00,Wunderground v.1.15,2013-01-17 05:04:00,
2013-01-16 23:08:00,37.3,24.7,30.30,NNW,335,0.0,2.0,60,0.00,,,0.00,Wunderground v.1.15,2013-01-17 05:08:00,
2013-01-16 23:12:00,37.0,24.4,30.30,NNW,335,0.0,2.0,60,0.00,,,0.00,Wunderground v.1.15,2013-01-17 05:12:00,
2013-01-16 23:18:00,36.9,24.7,30.30,NNW,335,0.0,2.0,61,0.00,,,0.00,Wunderground v.1.15,2013-01-17 05:18:00,
2013-01-16 23:24:00,37.7,25.1,30.30,North,356,1.0,2.0,60,0.00,,,0.00,Wunderground v.1.15,2013-01-17 05:24:00,
2013-01-16 23:30:00,38.1,25.0,30.30,North,352,1.0,2.0,59,0.00,,,0.00,Wunderground v.1.15,2013-01-17 05:30:00,
2013-01-16 23:36:00,38.3,24.8,30.30,NNW,342,1.0,2.0,58,0.00,,,0.00,Wunderground v.1.15,2013-01-17 05:36:00,
2013-01-16 23:42:00,38.4,24.9,30.30,NNW,345,0.0,2.0,58,0.00,,,0.00,Wunderground v.1.15,2013-01-17 05:42:00,
2013-01-16 23:48:00,38.1,25.0,30.30,NNW,345,0.0,2.0,59,0.00,,,0.00,Wunderground v.1.15,2013-01-17 05:48:00,
2013-01-16 23:54:00,38.4,25.3,30.31,NNW,329,1.0,2.0,59,0.00,,,0.00,Wunderground v.1.15,2013-01-17 05:54:00,